#timestamp,LO_Frequency,Hit,StdDev 
1534330815.6,286046996.9,N
1534330835.4,286046999.3,N
1534330855.3,286047000.2,N
1534330875.1,286046999.8,N
1534330895.8,286047000.8,N
1534330915.7,286046998.7,N
1534330935.5,286046996.6,N
1534330955.4,286046995.4,N
1534330975.2,286046993.3,Y
1534330995.0,286046995.0,P
1534330995.9,286046995.0,N
1534331015.8,286046995.2,N
1534331035.6,286046997.2,N
1534331055.4,286046996.7,N
1534331075.3,286046995.6,N
1534331095.1,286046994.8,Y
1534331115.9,286046995.7,P
1534331135.7,286046996.4,P
1534331155.5,286046995.5,P
1534331175.4,286046997.7,Y
1534331195.2,286047002.2,P
1534331215.0,286047000.5,N
1534331215.9,286047000.5,N
1534331235.8,286046998.3,N
1534331255.6,286046997.6,N
1534331275.5,286046994.1,N
1534331295.3,286046991.8,Y
1534331315.1,286046995.8,P
1534331335.9,286046995.1,P
1534331355.7,286046995.7,N
1534331375.5,286046993.3,Y
1534331395.4,286046996.8,P
1534331415.2,286046994.9,P
1534331435.1,286046994.9,P
1534331436.0,286046994.9,Y
1534331455.8,286047001.0,P
1534331475.6,286047000.5,N
1534331495.5,286046996.7,N
1534331515.3,286046997.2,N
1534331535.2,286046997.1,N
1534331555.9,286046995.1,N
1534331575.7,286046995.2,N
1534331595.6,286046994.7,N
1534331615.4,286046994.4,N
1534331635.2,286046991.0,Y
1534331655.1,286046993.5,P
1534331656.0,286046993.5,P
1534331675.8,286046993.5,P
1534331695.7,286046992.4,Y
1534331715.5,286046997.3,P
1534331735.3,286046995.4,P
1534331755.2,286046997.9,N
1534331775.9,286046995.3,Y
1534331795.7,286046998.2,P
1534331815.6,286047000.6,N
1534331835.4,286047002.3,N
1534331855.3,286047000.4,N
1534331875.1,286047002.2,N
1534331876.0,286047002.2,N
1534331895.8,286047001.4,N
1534331915.7,286047002.7,N
1534331935.5,286047002.8,N
1534331955.3,286047002.3,N
1534331975.2,286046996.9,N
1534331995.0,286046997.7,N
1534331995.9,286046997.7,N
1534332015.8,286046993.8,N
1534332035.6,286046994.0,N
1534332055.4,286046992.0,N
1534332075.3,286046991.2,N
1534332095.1,286046989.0,N
1534332096.0,286046989.0,N
1534332115.8,286046988.9,N
1534332135.7,286046988.8,N
1534332155.5,286046988.5,N
1534332175.3,286046991.3,N
1534332195.2,286046989.7,N
1534332215.0,286046989.6,N
1534332215.9,286046989.6,N
1534332235.8,286046990.0,N
1534332255.6,286046985.3,N
1534332275.4,286046985.9,N
1534332295.3,286046985.6,N
1534332315.1,286046986.4,N
1534332335.8,286046984.6,N
1534332355.7,286046983.2,N
1534332375.5,286046980.8,Y
1534332395.4,286046987.5,P
1534332415.2,286046987.7,P
1534332435.0,286046990.0,P
1534332435.9,286046990.0,Y
1534332455.8,286046996.8,P
1534332475.6,286046998.0,N
1534332495.5,286046995.6,N
1534332515.3,286046993.8,N
1534332535.1,286046993.0,N
1534332555.9,286046990.2,Y
1534332575.7,286046996.8,P
1534332595.6,286046997.3,N
1534332615.4,286046995.9,P
1534332635.2,286046996.4,Y
1534332655.1,286046998.3,P
1534332656.0,286046998.3,N
1534332675.8,286046998.8,N
1534332695.6,286046999.3,N
1534332715.5,286047001.2,N
1534332735.3,286046998.6,N
1534332755.2,286046998.4,N
1534332775.9,286047000.5,N
1534332795.7,286046998.8,N
1534332815.6,286046997.7,N
1534332835.4,286046997.7,N
1534332855.2,286046995.3,Y
1534332875.1,286046995.9,P
1534332876.0,286046995.9,P
1534332895.8,286046993.8,P
1534332915.7,286046992.0,Y
1534332935.5,286046997.3,P
1534332955.3,286046997.1,P
1534332975.2,286046996.6,P
1534332995.0,286046999.3,N
1534332995.9,286046999.3,N
1534333015.8,286046997.7,N
1534333035.6,286046995.1,Y
1534333055.4,286047001.0,P
1534333075.3,286046998.9,N
1534333095.1,286046997.8,N
1534333115.8,286046993.9,Y
1534333135.7,286046993.8,P
1534333155.5,286046994.1,N
1534333175.4,286046991.3,P
1534333195.2,286046989.8,Y
1534333215.0,286046995.6,P
1534333215.9,286046995.6,P
1534333235.8,286046996.4,P
1534333255.6,286046992.5,Y
1534333275.4,286046997.4,P
1534333295.3,286046996.0,P
1534333315.1,286046993.5,P
1534333335.9,286046995.7,Y
1534333355.7,286046998.4,P
1534333375.5,286046999.1,N
1534333395.4,286046999.3,N
1534333415.2,286046999.3,N
1534333435.0,286046996.6,N
1534333436.0,286046996.6,N
1534333455.8,286046997.0,N
1534333475.6,286046999.2,N
1534333495.5,286046997.7,N
1534333515.3,286046995.2,Y
1534333535.1,286046995.4,P
1534333555.9,286046997.1,N
1534333575.7,286046997.5,N
1534333595.6,286046997.9,N
1534333615.4,286046997.9,N
1534333635.2,286046997.5,N
1534333655.1,286047001.0,N
1534333656.0,286047001.0,N
1534333675.8,286046999.4,N
1534333695.6,286046995.3,N
1534333715.5,286046996.0,N
1534333735.3,286046993.4,Y
1534333755.2,286046992.0,P
1534333775.9,286046990.9,P
1534333795.7,286046991.4,N
1534333815.6,286046987.2,Y
1534333835.4,286046986.3,P
1534333855.2,286046988.8,P
1534333875.1,286046990.0,P
1534333876.0,286046990.0,Y
1534333895.8,286047000.3,P
1534333915.7,286047000.8,N
1534333935.5,286046999.6,N
1534333955.3,286046997.4,N
1534333975.2,286046995.9,N
1534333995.0,286046992.3,N
1534333995.9,286046992.3,N
1534334015.7,286046989.0,N
1534334035.6,286046985.6,Y
1534334055.4,286046991.6,P
1534334075.3,286046990.4,P
1534334095.1,286046989.3,P
1534334096.0,286046989.3,Y
1534334115.8,286046995.6,P
1534334135.7,286046990.5,P
1534334155.5,286046989.8,P
1534334175.4,286046987.1,Y
1534334195.2,286046994.5,P
1534334215.0,286046991.3,P
1534334215.9,286046991.3,P
1534334235.8,286046991.4,Y
1534334255.6,286046996.9,P
1534334275.4,286046995.5,N
1534334295.3,286046993.5,P
1534334315.1,286046996.4,N
1534334335.9,286046991.2,Y
1534334355.7,286046996.1,P
1534334375.5,286046996.4,P
1534334395.4,286046993.8,P
